Location: Peebles
(55.6412°N, 3.1714°W)
Time: 12:22:46
(UTC+00:00)

CUTE-I - Pass Details

Date: 19 December 2023
Orbit: 807 x 823 km, 98.7° (Epoch: 24 February)

Event Time Altitude Azimuth Distance (km) Brightness Sun altitude
Rises 16:31:12 0° 141° (SE) 3,333 ? -6.4°
Reaches altitude 10° 16:33:36 10° 135° (SE) 2,407 ? -6.7°
Maximum altitude 16:38:41 47° 63° (ENE) 1,075 ? -7.3°
Drops below altitude 10° 16:43:49 10° 351° (N) 2,432 ? -8.0°
Sets 16:46:14 0° 346° (NNW) 3,370 ? -8.2°
